THORAD AGENA D DEB, 42513

Orbit data source: Space-Track

THORAD AGENA D DEB, 42513 is space debris in SSO originally from a launch on Wed, 08 Apr 1970 UTC launched from the Air Force Western Test Range (AFWTR). Debris objects in space refer to the collection of defunct objects orbiting the Earth. Examples of debris include non-operational satellites, rocket bodies, and fragments generated from explosions, collisions, or faulty payload assembly.

Loading next visibility...
Identifier
42513, 1970-025RT
Orbit
SSO
Country
Flag of USUS
Related business
Manufacturer
Unknown
Mission
Spacecraft
Bus & Motor
Unknown
Mass
Unknown
Launch date (UTC)
1970-04-08 (55 years ago)
Launch vehicle
Unknown
Launch site
Air Force Western Test Range (AFWTR)
Object type
Payload
Rocket body
Debris
Shape & HBR
Unknown
Radar Cross Section
Small (<0.1 m²)

Expand to show TLE details & history
Last TLE update: 9 months ago

TLE from 9 months ago
0 THORAD AGENA D DEB
1 42513U 70025RT  24359.58583637  .00002790  00000-0  23631-2 0  9992
2 42513  99.9797 284.6724 0013355 121.3432 238.9032 13.88466891 50694
Epoch: 2024-12-24T14:03Z
TLE epoch observation values (Epoch: 2024-12-24T14:03:36.262Z)
Latitude
0.00003°
Longitude
-19.82051°
Altitude
941.891 km
Speed
7.378 km/s
True Right ascension
18h 58m 41s
True Declination
0° 00' 00"
Sunlit
Object was in daylight at epoch
Visualization orbit readout
Latitude
Unknown
Longitude
Unknown
Altitude
Unknown
Speed
Unknown
Apparent Right ascension
Unknown
Apparent Declination
Unknown
Sunlit
N/A
Visualization observer readout
Local Sidereal Time
09:20:27
Azimuth
Unknown
Elevation
Unknown
Doppler factor
Unknown
Orbital elements
Apogee altitude
941.035 km
Perigee altitude
921.512 km
Semi-major axis
7,309.411 km
Eccentricity
0.00134
Inclination
99.9797°
RAAN
284.6724°
Arg. of periapsis
121.3432°
True anomaly
238.77227°
Mean anomaly
238.9032°
Eccentric anomaly
238.83772°
Mean motion
3.47312 °/min
Orbital period
103.65 mins
BSTAR
0.0023631
Loading maneuver chart data...
Computing Atmospheric mass density...

Documentation

Showing up to 5 results
|